This is the latest recevied weather packets stored in our database for station/object SQ9MHX-13. If no packets are shown the sender has not sent any weather packets the latest 10 day(s).
| Time | Temp. | Humidity | Pressure | Rain* | Wind** | Luminosity | Snow |
|---|---|---|---|---|---|---|---|
| 1777899471 | 27.22° C | 22% | 943.7 hPa | - | 0 m/s | - | - |
| 1777899170 | 27.78° C | 17% | 943.1 hPa | - | 0 m/s | - | - |
| 1777898871 | 28.89° C | 17% | 942.7 hPa | - | 0 m/s | - | - |
| 1777898572 | 28.89° C | 16% | 943.2 hPa | - | 0 m/s | - | - |
| 1777897673 | 27.22° C | 22% | 944.3 hPa | - | 0 m/s | - | - |
| 1777897374 | 27.22° C | 18% | 944.2 hPa | - | 0 m/s | - | - |
| 1777897075 | 27.22° C | 21% | 944.4 hPa | - | 0 m/s | - | - |
| 1777896775 | 27.22° C | 20% | 945.2 hPa | - | 0 m/s | - | - |
| 1777896476 | 26.11° C | 21% | 945.3 hPa | - | 0 m/s | - | - |
| 1777896176 | 26.11° C | 19% | 945.1 hPa | - | 0 m/s | - | - |
| 1777895877 | 26.11° C | 20% | 945.4 hPa | - | 0 m/s | - | - |
| 1777895578 | 26.11° C | 20% | 945 hPa | - | 0 m/s | - | - |
| 1777895278 | 27.22° C | 23% | 945 hPa | - | 0 m/s | - | - |
| 1777894979 | 26.11° C | 19% | 945.3 hPa | - | 0 m/s | - | - |
| 1777894679 | 26.11° C | 19% | 945.1 hPa | - | 0 m/s | - | - |
| 1777894380 | 27.22° C | 16% | 945 hPa | - | 0 m/s | - | - |
| 1777894080 | 26.11° C | 23% | 944.4 hPa | - | 0 m/s | - | - |
| 1777893781 | 28.89° C | 19% | 945.3 hPa | - | 0 m/s | - | - |
| 1777893481 | 26.11° C | 20% | 946 hPa | - | 0 m/s | - | - |
| 1777893182 | 26.11° C | 22% | 945.6 hPa | - | 0 m/s | - | - |
| 1777892883 | 27.22° C | 19% | 946.5 hPa | - | 0 m/s | - | - |
| 1777892583 | 25° C | 19% | 946.4 hPa | - | 0 m/s | - | - |
| 1777892284 | 26.11° C | 19% | 946.3 hPa | - | 0 m/s | - | - |
| 1777891985 | 26.11° C | 22% | 945.8 hPa | - | 0 m/s | - | - |
| 1777891685 | 26.11° C | 20% | 946.7 hPa | - | 0 m/s | - | - |
* Rain since midnight (hover to see other rain measurements)
** Current wind speed in m/s (hover to see current wind gust speed)